Regional Weather Roundup
Issued by NWS State College, PA

Home | Current Version | Previous Version | Graphics & Text | Print | Product List | Glossary On
Versions: 1 2 3 4 5 6 7 8 9 10 11 12 13 14 15 16 17 18 19 20 21 22 23 24 25 26 27 28 29 30 31 32 33 34 35 36 37 38 39 40 41 42 43 44 45 46 47 48 49 50
000
ASUS41 KCTP 060903
RWRCTP

REGIONAL WEATHER ROUNDUP
NATIONAL WEATHER SERVICE STATE COLLEGE PA
500 AM EDT MON JUL 06 2015

Note: "fair" indicates few or no clouds below 12,000 feet with no
significant weather and/or obstructions to visibility.

* = STATION THAT DOES NOT REPORT PRECIPITATION /E.G. RAIN...SNOW...ETC/
    THUNDER OR FOG.

PAZ002>004-007>009-013>016-020>023-029>032-061000-
WESTERN PENNSYLVANIA

CITY           SKY/WX    TMP DP  RH WIND       PRES   REMARKS
ERIE           PTCLDY    68  59  73 S9        30.06S
MEADVILLE      MOCLDY    66  60  81 VRB5      30.09F
FRANKLIN*      CLOUDY    64  57  77 E3        30.11F
NEW CASTLE     FAIR      65  64  96 CALM      30.08S
BEAVER COUNTY  NOT AVBL
BUTLER*        CLOUDY    66  64  94 E5        30.10R
PITTSBURGH INT CLOUDY    72  66  81 SE5       30.07R
PITTSBURGH     LGT RAIN  70  64  81 SE5       30.07R
INDIANA*       CLOUDY    68  68 100 CALM      30.13S FOG
LATROBE        NOT AVBL
WASHINGTON CO* NOT AVBL
$$

PAZ004>006-010>012-017>019-024>028-033>037-041-042-045-046-049>053-061000-
CENTRAL PENNSYLVANIA

CITY           SKY/WX    TMP DP  RH WIND       PRES   REMARKS
BRADFORD       MOCLDY    56  54  93 CALM      30.15F
DUBOIS         CLOUDY    65  60  84 E7        30.12S
CLEARFIELD     CLOUDY    61  59  93 N7        30.14S
JOHNSTOWN      LGT RAIN  67  64  90 SE6       30.14R
ALTOONA        CLOUDY    67  65  93 CALM      30.14R
STATE COLLEGE  CLOUDY    64  63  95 CALM      30.14R
WILLIAMSPORT   CLOUDY    64  61  90 NW3       30.12S
SELINSGROVE    CLOUDY    66  64  93 CALM      30.14S FOG
FT INDIANTOWN  CLOUDY    66  65  97 NE3       30.13F
CAPITAL CITY   CLOUDY    70  66  87 E5        30.12S FOG
HARRISBURG     CLOUDY    70  67  90 SE3       30.11F
YORK           LGT RAIN  70  68  93 E3        30.12S
$$

PAZ038>040-043-044-047-048-054-055-060>062-067>071-061000-
EASTERN PENNSYLVANIA

CITY           SKY/WX    TMP DP  RH WIND       PRES   REMARKS
SCRANTON       MOCLDY    63  58  83 E5        30.16S
MOUNT POCONO   MOCLDY    57  54  89 CALM      30.20S
ALLENTOWN      MOCLDY    66  63  90 NE5       30.15S
QUAKERTOWN*    PTSUNNY   66  64  94 CALM      30.16F
READING        MOCLDY    67  64  90 N6        30.12F
LANCASTER      CLOUDY    68  67  96 E3        30.13S
COATESVILLE    CLOUDY    68  68 100 E5        30.15F FOG
POTTSTOWN      MOCLDY    67  67 100 CALM      30.15F
BLUE BELL      MOCLDY    68  68 100 CALM      30.14S
DOYLESTOWN     MOCLDY    65  65 100 CALM      30.14F
WILLOW GROVE   NOT AVBL
NORTH PHILA    CLOUDY    71  65  81 E3        30.15F
PHILADELPHIA   MOCLDY    72  68  87 E5        30.14S
$$


USA.gov is the U.S. government's official web portal to all federal, state and local government web resources and services.